Weather History for Dubuque, IA

Change the Weather History Date:

Saturday, April 28, 2012

  Actual Average Record
Temperature  
Mean Temperature 44 °F 53 °F  
Max Temperature 49 °F 63 °F 87 °F (1915)
Min Temperature 38 °F 42 °F 30 °F (2008)
Degree Days  
Heating Degree Days 21 12  
Month to date heating degree days 443 486  
Since 1 July heating degree days 5710 6797  
Cooling Degree Days 0 0  
Month to date cooling degree days 1 0  
Year to date cooling degree days 19 0  
Moisture  
Dew Point 38 °F    
Average Humidity 76    
Maximum Humidity 96    
Minimum Humidity 55    
Precipitation  
Precipitation 0.50 in 0.13 in 2.60 in (1896)
Month to date precipitation 1.97 3.38  
Year to date precipitation 7.25 8.40  
Snow  
Snow 0.00 in 0.10 in - ()
Month to date snowfall 0.0 2.0  
Since 1 July snowfall 32.1 41.9  
Snow Depth 0.00 in    
Sea Level Pressure  
Sea Level Pressure 30.07 in    
Wind  
Wind Speed 15 mph (East)    
Max Wind Speed 23 mph    
Max Gust Speed 29 mph    
Visibility 6 miles    
Events Rain    
T = Trace of Precipitation, MM = Missing Value Source: NWS Daily Summary

Daily Weather History Graph

Daily Weather History Graph

Search for Another Location

Airport:

Trip Planner

Search our weather history database for the weather conditions in past years. The results will help you decide how hot, cold, wet, or windy it might be!

Date:

Astronomy

Apr. 28, 2012 Rise Set
Actual Time 6:01 AM CDT 7:59 PM CDT
Civil Twilight 5:31 AM CDT 8:30 PM CDT
Nautical Twilight 4:53 AM CDT 9:07 PM CDT
Astronomical Twilight 4:13 AM CDT 9:48 PM CDT
Moon 11:40 AM CDT (4/28) 1:25 AM CDT (4/28)
Length of Visible Light 14h 59m
Length of Day
13h 58m
Waxing Crescent, 43% of the Moon is Illuminated
Apr 28
Waxing Crescent
Apr 29
First Quarter
May 5
Full
May 12
Last Quarter
May 20
New

Hourly Weather History & Observations

Time (CDT) Temp. Windchill Dew Point Humidity Pressure Visibility Wind Dir Wind Speed Gust Speed Precip Events Conditions
12:53 AM 39.9 °F 30.0 °F 27.0 °F 60% 30.04 in 10.0 mi East 21.9 mph - 0.01 in   Overcast
1:53 AM 41.0 °F 32.8 °F 27.0 °F 57% 30.01 in 10.0 mi East 16.1 mph 24.2 mph N/A   Overcast
2:53 AM 39.0 °F 29.6 °F 32.0 °F 76% 30.00 in 10.0 mi East 18.4 mph 21.9 mph 0.05 in Rain Light Rain
3:53 AM 39.0 °F 31.0 °F 33.1 °F 79% 30.00 in 6.0 mi East 13.8 mph - 0.06 in Rain Rain
4:53 AM 37.9 °F 28.5 °F 35.1 °F 89% 29.99 in 5.0 mi East 17.3 mph - 0.20 in Rain Light Rain
5:53 AM 39.0 °F 29.9 °F 36.0 °F 89% 29.99 in 7.0 mi East 17.3 mph 25.3 mph 0.00 in   Overcast
6:21 AM 39.2 °F 30.5 °F 37.4 °F 93% 29.97 in 3.0 mi East 16.1 mph 24.2 mph 0.01 in Rain Light Rain
6:31 AM 39.2 °F 29.3 °F 37.4 °F 93% 29.97 in 2.0 mi East 20.7 mph 26.5 mph 0.02 in Rain Light Rain
6:36 AM 39.2 °F 30.2 °F 37.4 °F 93% 29.97 in 1.5 mi East 17.3 mph 26.5 mph 0.03 in Rain Light Rain
6:53 AM 39.0 °F 29.6 °F 37.0 °F 93% 30.00 in 1.5 mi East 18.4 mph 27.6 mph 0.03 in Rain Light Rain
7:48 AM 39.2 °F 29.6 °F 37.4 °F 93% 29.99 in 2.0 mi East 19.6 mph 25.3 mph 0.04 in Rain Light Rain
7:53 AM 39.9 °F 31.4 °F 37.9 °F 93% 30.02 in 2.5 mi East 16.1 mph - 0.05 in Rain Light Rain
8:19 AM 39.2 °F 30.2 °F 37.4 °F 93% 30.00 in 1.5 mi East 17.3 mph 25.3 mph 0.01 in Rain Light Rain
8:53 AM 39.9 °F 31.8 °F 37.9 °F 93% 30.03 in 1.5 mi East 15.0 mph 24.2 mph 0.03 in Rain Light Rain
9:23 AM 39.2 °F 30.5 °F 39.2 °F 100% 30.02 in 2.5 mi East 16.1 mph - 0.04 in Rain Light Rain
9:35 AM 39.2 °F 30.2 °F 39.2 °F 100% 30.02 in 1.5 mi East 17.3 mph 26.5 mph 0.05 in Rain Light Rain
9:53 AM 41.0 °F 32.2 °F 39.0 °F 93% 30.04 in 1.5 mi East 18.4 mph 26.5 mph 0.06 in Rain Rain
10:08 AM 41.0 °F 32.8 °F 39.2 °F 93% 30.02 in 2.5 mi East 16.1 mph - 0.01 in   Overcast
10:53 AM 41.0 °F 31.9 °F 39.0 °F 93% 30.06 in 1.8 mi East 19.6 mph 24.2 mph 0.02 in   Overcast
11:15 AM 42.8 °F 35.1 °F 39.2 °F 87% 30.04 in 2.0 mi East 16.1 mph - N/A   Overcast
11:53 AM 42.1 °F 34.2 °F 39.9 °F 92% 30.07 in 3.0 mi East 16.1 mph 26.5 mph N/A   Overcast
12:53 PM 43.0 °F 36.0 °F 41.0 °F 93% 30.08 in 7.0 mi East 13.8 mph 21.9 mph N/A   Overcast
1:53 PM 44.1 °F 37.1 °F 41.0 °F 89% 30.09 in 7.0 mi East 15.0 mph 19.6 mph N/A   Overcast
2:53 PM 46.0 °F 39.9 °F 41.0 °F 83% 30.09 in 9.0 mi ENE 13.8 mph 21.9 mph N/A   Overcast
3:19 PM 46.4 °F 40.4 °F 41.0 °F 81% 30.08 in 10.0 mi East 13.8 mph - N/A   Overcast
3:53 PM 46.9 °F - 39.9 °F 77% 30.11 in 10.0 mi East 13.8 mph - N/A   Overcast
4:53 PM 48.0 °F - 39.9 °F 74% 30.12 in 10.0 mi East 10.4 mph - N/A   Overcast
5:46 PM 48.2 °F - 39.2 °F 71% 30.10 in 10.0 mi ESE 15.0 mph - N/A   Overcast
5:53 PM 48.9 °F - 39.9 °F 71% 30.12 in 10.0 mi ESE 12.7 mph - N/A   Overcast
6:30 PM 48.2 °F - 39.2 °F 71% 30.09 in 10.0 mi East 10.4 mph - N/A   Overcast
6:53 PM 48.9 °F - 39.9 °F 71% 30.11 in 10.0 mi East 12.7 mph - N/A   Overcast
7:53 PM 46.9 °F - 39.9 °F 77% 30.14 in 10.0 mi ENE 6.9 mph - N/A   Overcast
8:53 PM 46.9 °F - 41.0 °F 80% 30.17 in 10.0 mi East 9.2 mph - N/A   Overcast
9:34 PM 44.6 °F 39.2 °F 41.0 °F 87% 30.16 in 8.0 mi ENE 10.4 mph 18.4 mph N/A   Overcast
9:53 PM 43.0 °F 35.4 °F 39.0 °F 86% 30.19 in 6.0 mi ENE 16.1 mph - N/A   Overcast
10:08 PM 42.8 °F 35.4 °F 39.2 °F 87% 30.17 in 6.0 mi ENE 15.0 mph - N/A   Overcast
10:53 PM 42.1 °F 35.2 °F 39.0 °F 89% 30.19 in 7.0 mi ENE 12.7 mph 19.6 mph N/A   Overcast
11:41 PM 42.8 °F 36.6 °F 37.4 °F 81% 30.21 in 7.0 mi East 11.5 mph - N/A   Overcast
11:53 PM 42.1 °F 35.2 °F 37.9 °F 85% 30.23 in 7.0 mi East 12.7 mph - N/A   Overcast